[[{"header":{"parameterUnit":"m.s-1","parameterCategory":2,"la1":30.2991,"la2":30.254,"lo1":-89.0895,"lo2":-89.0444,"dy":0.0017,"dx":0.0017,"nx":28,"ny":28,"refTime":"2025-09-16T09:00:00:Z","depth":"0","parameterNumber":2,"parameterNumberName":"U-component_of_CURRENTS"},"data":[0,0,0,0,0,0,0,0,0,0,0,0,0,0,0,0,0,0,0,0,0,0,0,0,0,0,0,0,0,0,0,0,0,0,0,0,0,0,0,0,0,0,0,0,0,0,0,0,0,0,0,0,0,0,0,0,0,0,0.2668,0.2669,0,0.2693,0.2693,0.2693,0.2694,0.2694,0.2694,0.2694,0.2646,0.2645,0.2643,0,0,0,0,0,0,0,0,0,0,0,0,0,0.2565,0.2567,0.2668,0.2669,0.267,0.2693,0.2693,0.2693,0.2693,0.2694,0.2694,0.2694,0.2647,0.2645,0.2643,0,0,0,0,0,0,0,0,0,0,0,0,0,0.2596,0.2568,0.2668,0.2678,0.2679,0.2693,0.2693,0.2692,0.2693,0.2694,0.2694,0.2695,0.2647,0.2645,0.2643,0.2621,0,0,0.2636,0.2635,0,0,0,0,0,0,0,0,0.2595,0.2599,0.2675,0.2677,0.2679,0.2696,0.2639,0.2667,0.2693,0.2681,0.2694,0.2695,0.266,0.2657,0.2653,0.2619,0.2616,0.2636,0.2634,0.2633,0.2633,0,0,0,0,0,0,0,0.2592,0.2598,0.2672,0.2676,0.2679,0.2662,0.2667,0.2644,0.2662,0.2683,0.2684,0.2697,0.266,0.2655,0.2651,0.2616,0.2636,0.2634,0.2632,0.2631,0.2642,0.2644,0,0,0,0,0,0,0.2605,0.2596,0.2671,0.2673,0.2644,0.2664,0.2669,0.2685,0.2664,0.2663,0.2696,0.2697,0.2659,0.2654,0.265,0.2679,0.2633,0.2631,0.263,0.2641,0.2643,0.2644,0,0,0,0,0,0,0.2602,0.2611,0.267,0.264,0.2647,0.2667,0.2684,0.2686,0.269,0.2676,0.2673,0.2701,0.2659,0.2653,0.2645,0.2675,0.263,0.2628,0.2639,0.2641,0.2643,0.2702,0,0,0,0,0,0,0.2599,0.261,0.2616,0.2641,0.2649,0.2684,0.2684,0.2686,0.2699,0.27,0.2679,0.2675,0.2659,0.2649,0.2643,0.2671,0.2626,0.2636,0.264,0.2643,0.2698,0.2706,0.2713,0,0,0,0,0,0.2595,0.2607,0.2616,0.2625,0.266,0.2685,0.2687,0.2697,0.2699,0.2701,0.2694,0.2676,0.2665,0.2647,0.264,0.2669,0.2635,0.2639,0.2642,0.2694,0.2704,0.2713,0,0,0,0,0,0,0.256,0.2609,0.262,0.2644,0.2667,0.2688,0.2693,0.2701,0.2697,0.2697,0.2679,0.2674,0.2683,0.2667,0.2648,0.2685,0.2654,0.2656,0.2696,0.2705,0.2712,0.2735,0.2624,0,0,0,0,0,0.2558,0.2581,0.2621,0.2637,0.2653,0.2672,0.2681,0.2693,0.27,0.2699,0.2686,0.2684,0.2692,0.269,0.2683,0.2688,0.274,0.271,0.2718,0.2724,0.2741,0.2832,0.285,0.2657,0.2657,0.2656,0,0,0.2551,0.2579,0.2593,0.2631,0.2648,0.2684,0.2677,0.2699,0.273,0.2692,0.2711,0.2699,0.2698,0.2715,0.2719,0.2705,0.2818,0.2729,0.2734,0.2748,0.2838,0.2857,0.2874,0.2659,0.2659,0.2658,0,0,0.2564,0.2573,0.2609,0.2633,0.2672,0.2682,0.2694,0.2718,0.2731,0.2742,0.2742,0.2757,0.2738,0.2767,0.2776,0.2822,0.2851,0.2813,0.287,0.2959,0.2976,0.2992,0.3131,0.3158,0.2821,0.2821,0.2821,0,0.2561,0.2607,0.2618,0.2663,0.2689,0.2689,0.2734,0.2748,0.2765,0.2782,0.2756,0.2786,0.2777,0.2841,0.2859,0.2842,0.2907,0.2832,0.2971,0.2987,0.3002,0.314,0.317,0.2825,0.2824,0.2824,0.2824,0,0.2615,0.2647,0.2666,0.2727,0.2748,0.2778,0.2812,0.2824,0.2824,0.2841,0.2881,0.2875,0.2902,0.2904,0.289,0.2994,0.3015,0.2967,0.2949,0.3025,0.3166,0.3196,0.2829,0.2828,0.2827,0.2826,0,0,0.2641,0.2697,0.2707,0.2737,0.2785,0.2807,0.2856,0.2904,0.2944,0.2944,0.3008,0.3022,0.3016,0.3029,0.3025,0.3093,0.3264,0.3074,0.3077,0.3217,0.3509,0.3538,0.3573,0.3232,0.3236,0.324,0.3584,0,0.269,0.2761,0.2784,0.2846,0.2885,0.2901,0.2945,0.2983,0.3002,0.3052,0.3075,0.3115,0.3069,0.3086,0.3151,0.3224,0.3336,0.3178,0.341,0.3419,0.3437,0.3605,0.3475,0.3769,0.3613,0.3618,0.3621,0,0.2759,0.279,0.2857,0.2905,0.2926,0.2957,0.3019,0.3061,0.3131,0.315,0.3198,0.3209,0.3319,0.3252,0.3463,0.3361,0.3455,0.3511,0.3525,0.3548,0.3501,0.3658,0.3829,0.3685,0.3667,0.3663,0.366,0,0.2779,0.2847,0.2888,0.2911,0.2966,0.2996,0.3022,0.3086,0.3142,0.3222,0.3275,0.3367,0.3444,0.3549,0.3663,0.3578,0.3908,0.3806,0.3943,0.3948,0.3884,0.3875,0.3941,0.3992,0.3991,0.399,0.3989,0,0.2833,0.2873,0.2893,0.2922,0.2973,0.3006,0.3076,0.3115,0.3205,0.3277,0.3326,0.3422,0.3517,0.3689,0.3762,0.3983,0.401,0.4019,0.4051,0.3905,0.3894,0.3798,0.3708,0.4003,0.4,0.3998,0.3995,0,0.288,0.2888,0.2941,0.2978,0.2988,0.3028,0.3106,0.3162,0.3238,0.3346,0.3383,0.3537,0.3745,0.3884,0.4103,0.4144,0.4217,0.4387,0.4241,0.4247,0.4175,0.4093,0.4122,0.4006,0.4598,0.4601,0.4604,0,0.2924,0.2949,0.2977,0.2998,0.3019,0.3069,0.3108,0.3173,0.323,0.3408,0.3466,0.3705,0.386,0.424,0.4351,0.4574,0.4368,0.4577,0.4371,0.4221,0.4153,0.3946,0.3826,0.4342,0.4342,0.4342,0.4343,0,0.3008,0.3003,0.303,0.3059,0.3088,0.3119,0.3166,0.3217,0.3295,0.341,0.3586,0.3739,0.4074,0.4241,0.4524,0.4609,0.4333,0.4587,0.4453,0.4006,0.3764,0.3648,0.41,0.4343,0.4343,0.4343,0.4343,0.4343,0.3067,0.3089,0.3098,0.3122,0.3146,0.3147,0.3153,0.3216,0.3309,0.3426,0.3612,0.379,0.405,0.4418,0.4494,0.448,0.4396,0.4352,0.4296,0.4125,0.3894,0.4388,0.4626,0.4627,0.4628,0.463,0.4631,0,0.3122,0.3126,0.3162,0.3155,0.3157,0.3157,0.3175,0.316,0.3225,0.3388,0.3546,0.3769,0.3987,0.4144,0.4267,0.4181,0.3972,0.4072,0.3703,0.3621,0.4108,0.3971,0.4046,0.4047,0.4047,0.4047,0.4047,0.4047,0.3152,0.3168,0.3159,0.3145,0.3137,0.3081,0.3063,0.3057,0.3123,0.3216,0.3303,0.3447,0.3706,0.3956,0.3926,0.3852,0.3514,0.3439,0.3385,0.3668,0.3685,0.3701,0.3548,0.3535,0.3534,0.2739,0.2733,0.2728]},{"header":{"parameterUnit":"m.s-1","parameterCategory":2,"la1":30.2991,"la2":30.254,"lo1":-89.0895,"lo2":-89.0444,"dy":0.0017,"dx":0.0017,"nx":28,"ny":28,"refTime":"2025-09-16T09:00:00:Z","depth":"0","parameterNumber":3,"parameterNumberName":"V-component_of_CURRENTS"},"data":[0,0,0,0,0,0,0,0,0,0,0,0,0,0,0,0,0,0,0,0,0,0,0,0,0,0,0,0,0,0,0,0,0,0,0,0,0,0,0,0,0,0,0,0,0,0,0,0,0,0,0,0,0,0,0,0,0,0,-0.1172,-0.1173,0,-0.1269,-0.127,-0.1271,-0.1315,-0.1315,-0.1315,-0.1315,-0.1436,-0.1439,-0.1443,0,0,0,0,0,0,0,0,0,0,0,0,0,-0.1087,-0.1088,-0.1172,-0.1173,-0.1175,-0.1269,-0.127,-0.1271,-0.1315,-0.1315,-0.1315,-0.1315,-0.1435,-0.1439,-0.1443,0,0,0,0,0,0,0,0,0,0,0,0,0,-0.1147,-0.1088,-0.1172,-0.1208,-0.1212,-0.1268,-0.127,-0.1271,-0.1315,-0.1315,-0.1315,-0.1315,-0.1434,-0.1439,-0.1443,-0.1475,0,0,-0.1458,-0.1461,0,0,0,0,0,0,0,0,-0.1144,-0.115,-0.1202,-0.1206,-0.1211,-0.128,-0.1285,-0.1341,-0.1315,-0.1275,-0.1315,-0.1315,-0.1387,-0.1396,-0.1413,-0.1481,-0.1486,-0.1459,-0.1462,-0.1464,-0.1465,0,0,0,0,0,0,0,-0.1139,-0.1147,-0.121,-0.1203,-0.1208,-0.1241,-0.1249,-0.1296,-0.133,-0.1279,-0.1282,-0.1294,-0.1389,-0.1408,-0.1416,-0.1488,-0.1459,-0.1463,-0.1466,-0.1468,-0.1527,-0.1526,0,0,0,0,0,0,-0.1126,-0.1142,-0.1207,-0.1213,-0.1177,-0.1242,-0.1251,-0.1257,-0.1329,-0.134,-0.1294,-0.1296,-0.1399,-0.141,-0.142,-0.1412,-0.1464,-0.1468,-0.1471,-0.1528,-0.1527,-0.1525,0,0,0,0,0,0,-0.1123,-0.113,-0.1203,-0.1181,-0.1192,-0.1243,-0.1251,-0.1259,-0.1276,-0.1341,-0.1352,-0.1301,-0.14,-0.1413,-0.1454,-0.1419,-0.1471,-0.1475,-0.153,-0.1528,-0.1526,-0.1427,0,0,0,0,0,0,-0.112,-0.1129,-0.1126,-0.1179,-0.1193,-0.1225,-0.1251,-0.1261,-0.1283,-0.1286,-0.135,-0.1362,-0.1401,-0.1447,-0.1459,-0.1427,-0.1479,-0.1532,-0.1529,-0.1527,-0.1432,-0.1422,-0.1413,0,0,0,0,0,-0.1117,-0.1103,-0.1125,-0.1133,-0.1188,-0.1225,-0.1235,-0.1271,-0.1283,-0.1286,-0.1329,-0.136,-0.1438,-0.1451,-0.1466,-0.1433,-0.1533,-0.153,-0.1527,-0.1437,-0.1424,-0.1414,0,0,0,0,0,0,-0.1042,-0.1108,-0.1133,-0.1134,-0.1176,-0.1232,-0.1233,-0.1266,-0.1303,-0.1302,-0.1363,-0.1378,-0.1395,-0.1431,-0.1443,-0.1439,-0.1482,-0.1482,-0.1408,-0.1397,-0.1388,-0.1338,-0.1483,0,0,0,0,0,-0.1031,-0.1046,-0.111,-0.1106,-0.1126,-0.1182,-0.12,-0.1228,-0.127,-0.1286,-0.1332,-0.1369,-0.1394,-0.141,-0.1446,-0.1459,-0.1431,-0.144,-0.143,-0.1422,-0.139,-0.1323,-0.1303,-0.1515,-0.1515,-0.1515,0,0,-0.0994,-0.1035,-0.1039,-0.1093,-0.1125,-0.1135,-0.1191,-0.1211,-0.1212,-0.1294,-0.1303,-0.1348,-0.1392,-0.1398,-0.1406,-0.1424,-0.1345,-0.1418,-0.1411,-0.1383,-0.1317,-0.1296,-0.1277,-0.1513,-0.1513,-0.1514,0,0,-0.0924,-0.097,-0.0959,-0.0999,-0.1053,-0.1093,-0.1096,-0.1156,-0.1176,-0.1207,-0.1247,-0.126,-0.1327,-0.1328,-0.1342,-0.1301,-0.1302,-0.132,-0.1229,-0.1164,-0.1145,-0.1128,-0.1049,-0.1026,-0.1309,-0.1308,-0.1308,0,-0.0867,-0.0875,-0.0957,-0.0961,-0.0973,-0.1066,-0.1045,-0.1086,-0.1149,-0.114,-0.1193,-0.1224,-0.1278,-0.124,-0.1233,-0.1274,-0.1238,-0.1271,-0.1148,-0.1131,-0.1116,-0.1039,-0.1015,-0.1303,-0.1304,-0.1304,-0.1305,0,-0.0799,-0.0808,-0.0801,-0.0841,-0.0868,-0.0866,-0.0939,-0.0956,-0.1,-0.103,-0.1022,-0.1092,-0.109,-0.1119,-0.1176,-0.1087,-0.1096,-0.1147,-0.1171,-0.1087,-0.1013,-0.0989,-0.1296,-0.1298,-0.1299,-0.1301,0,0,-0.0643,-0.0731,-0.0724,-0.0723,-0.0802,-0.0804,-0.0812,-0.0823,-0.0781,-0.0864,-0.0794,-0.0869,-0.0896,-0.0911,-0.0969,-0.0937,-0.0816,-0.0995,-0.0994,-0.0903,-0.0649,-0.0627,-0.06,-0.0848,-0.0844,-0.084,-0.0635,0,-0.0548,-0.0526,-0.0599,-0.0559,-0.0551,-0.0636,-0.0622,-0.0649,-0.0681,-0.0647,-0.0709,-0.068,-0.0821,-0.0798,-0.0793,-0.0805,-0.0752,-0.0865,-0.0754,-0.075,-0.0729,-0.0571,-0.0604,-0.0421,-0.0612,-0.0608,-0.0605,0,-0.0446,-0.045,-0.0399,-0.0413,-0.0409,-0.0394,-0.0362,-0.0365,-0.0369,-0.0383,-0.0385,-0.0439,-0.0409,-0.054,-0.0494,-0.0561,-0.0585,-0.061,-0.0603,-0.0595,-0.0682,-0.0539,-0.0371,-0.0615,-0.0569,-0.0572,-0.0575,0,-0.0294,-0.0299,-0.0249,-0.0259,-0.0293,-0.0253,-0.0253,-0.026,-0.0216,-0.0189,-0.0128,-0.0155,-0.0107,-0.0162,-0.0252,-0.0349,-0.0184,-0.0318,-0.0311,-0.031,-0.0318,-0.0324,-0.0358,-0.0246,-0.0246,-0.0247,-0.0247,0,-0.0172,-0.0126,-0.0167,-0.0139,-0.0039,-0.0108,0.001,-0.0001,0.0046,0.0148,0.0039,0.0143,-0.0009,0.0025,-0.0107,-0.0097,-0.0053,-0.0229,-0.0231,-0.0285,-0.029,-0.0492,-0.0638,-0.0239,-0.0241,-0.0242,-0.0243,0,-0.0026,-0.0062,0.0003,0.0008,0.0025,0.0102,0.0166,0.0251,0.0274,0.0417,0.0448,0.0441,0.0488,0.0351,0.0318,0.0152,0.0011,0.0102,0.0057,0.0045,-0.0232,-0.037,-0.032,-0.041,0.0152,0.0154,0.0156,0,0.0047,0.0087,0.0128,0.0183,0.0194,0.0286,0.0354,0.0371,0.0461,0.0608,0.0707,0.0795,0.0875,0.084,0.058,0.0442,0.0175,0.0287,0.0077,-0.0182,-0.0338,-0.0447,-0.0538,0.0111,0.0113,0.0114,0.0115,0,0.0188,0.0199,0.0244,0.0348,0.0432,0.0528,0.0628,0.0733,0.0785,0.0931,0.1135,0.1232,0.1179,0.1047,0.0822,0.0641,0.0103,0.0304,0.0052,-0.0325,-0.0456,-0.0568,-0.0094,0.0124,0.0123,0.0122,0.0122,0.0122,0.0299,0.0361,0.041,0.051,0.0611,0.0743,0.0839,0.0974,0.1158,0.1384,0.1456,0.166,0.1386,0.1079,0.0806,0.0218,0.0212,-0.0015,-0.0136,-0.0204,-0.0363,0.0151,0.0337,0.0337,0.0337,0.0338,0.0338,0,0.0401,0.0453,0.0562,0.0669,0.0786,0.0812,0.0991,0.1102,0.1329,0.1622,0.1826,0.1846,0.146,0.0991,0.0247,-0.0167,-0.0388,-0.0417,-0.0637,-0.0695,-0.0213,-0.0297,-0.0261,-0.026,-0.026,-0.026,-0.026,-0.0259,0.0459,0.0552,0.0586,0.0772,0.086,0.1012,0.1109,0.132,0.1539,0.191,0.2101,0.222,0.1848,0.0478,-0.0475,-0.0698,-0.1051,-0.1064,-0.1207,-0.0993,-0.0969,-0.0946,-0.1062,-0.1186,-0.1187,-0.1684,-0.1689,-0.1693]}],[{"header":{"parameterUnit":"m.s-1","parameterCategory":2,"la1":30.2991,"la2":30.254,"lo1":-89.0895,"lo2":-89.0444,"dy":0.0017,"dx":0.0017,"nx":28,"ny":28,"refTime":"2025-09-16T09:00:00:Z","depth":"2","parameterNumber":2,"parameterNumberName":"U-component_of_CURRENTS"},"data":[0,0,0,0,0,0,0,0,0,0,0,0,0,0,0,0,0,0,0,0,0,0,0,0,0,0,0,0,0,0,0,0,0,0,0,0,0,0,0,0,0,0,0,0,0,0,0,0,0,0,0,0,0,0,0,0,0,0,0.2116,0.2117,0,0.2284,0.2287,0.2289,0.2388,0.2387,0.2387,0.2386,0.2396,0.2397,0.2397,0,0,0,0,0,0,0,0,0,0,0,0,0,0.2074,0.2074,0.2116,0.2117,0.2118,0.2284,0.2287,0.229,0.2388,0.2387,0.2387,0.2386,0.2396,0.2397,0.2397,0,0,0,0,0,0,0,0,0,0,0,0,0,0.2161,0.2074,0.2116,0.2179,0.2186,0.2283,0.2287,0.2291,0.2388,0.2387,0.2386,0.2386,0.2395,0.2397,0.2398,0.242,0,0,0.2401,0.2402,0,0,0,0,0,0,0,0,0.2156,0.2164,0.2169,0.2175,0.2183,0.2305,0.2276,0.2323,0.2388,0.2322,0.2386,0.2385,0.2345,0.235,0.24,0.2421,0.2421,0.2401,0.2402,0.2402,0.2403,0,0,0,0,0,0,0,0.215,0.2158,0.2193,0.217,0.2178,0.2266,0.2277,0.2288,0.2341,0.2328,0.2333,0.2336,0.2349,0.2399,0.24,0.2421,0.2401,0.2402,0.2403,0.2403,0.2468,0.2469,0,0,0,0,0,0,0.2099,0.2151,0.2187,0.2197,0.2156,0.2265,0.2278,0.2275,0.2344,0.2353,0.2336,0.2339,0.2398,0.2399,0.2401,0.2452,0.2402,0.2403,0.2404,0.2467,0.2469,0.247,0,0,0,0,0,0,0.2098,0.21,0.218,0.2171,0.2185,0.2264,0.2262,0.2278,0.2346,0.235,0.2358,0.2386,0.2397,0.2399,0.2421,0.2451,0.2404,0.2405,0.2466,0.2468,0.2469,0.2539,0,0,0,0,0,0,0.2096,0.2099,0.2141,0.2166,0.2184,0.2268,0.2262,0.2282,0.2342,0.235,0.2395,0.2395,0.2397,0.2419,0.2422,0.2452,0.2406,0.2465,0.2467,0.2469,0.2536,0.2543,0.2549,0,0,0,0,0,0.2094,0.2129,0.2141,0.2149,0.2217,0.227,0.2291,0.2351,0.2345,0.2404,0.2406,0.2394,0.2433,0.2421,0.2424,0.2455,0.2464,0.2466,0.2469,0.2532,0.2541,0.2549,0,0,0,0,0,0,0.2147,0.2142,0.2156,0.2194,0.2243,0.2283,0.2345,0.2362,0.242,0.2416,0.2411,0.2413,0.2447,0.2437,0.2423,0.2478,0.2446,0.2449,0.2493,0.2502,0.2508,0.2519,0.2407,0,0,0,0,0,0.2169,0.2189,0.2205,0.2246,0.2262,0.2307,0.2351,0.2374,0.2398,0.2428,0.2434,0.244,0.2461,0.2468,0.2485,0.2512,0.2545,0.2532,0.2539,0.2545,0.2554,0.2631,0.2646,0.2477,0.2477,0.2477,0,0,0.2194,0.2202,0.2214,0.2261,0.2298,0.2337,0.2336,0.239,0.2424,0.241,0.246,0.2468,0.2474,0.2514,0.2526,0.2507,0.2615,0.2548,0.2553,0.2559,0.2635,0.2652,0.2667,0.2479,0.2479,0.2479,0,0,0.2227,0.2262,0.2281,0.2317,0.2363,0.2392,0.2402,0.2436,0.2468,0.2505,0.2502,0.2526,0.2548,0.2569,0.2578,0.2629,0.2653,0.2629,0.2671,0.2746,0.2761,0.2775,0.2866,0.2887,0.2628,0.2628,0.2628,0,0.2267,0.2291,0.2308,0.2337,0.2373,0.2405,0.2441,0.2482,0.2519,0.2538,0.2522,0.2578,0.2578,0.2635,0.2653,0.2647,0.27,0.2641,0.2758,0.2772,0.2784,0.2875,0.2897,0.2632,0.2631,0.2631,0.2631,0,0.2304,0.234,0.2357,0.2395,0.2444,0.2489,0.2512,0.2555,0.2571,0.2598,0.2651,0.2664,0.2696,0.2701,0.2693,0.2781,0.2796,0.2765,0.2742,0.2806,0.2897,0.2919,0.2637,0.2636,0.2635,0.2634,0,0,0.2329,0.2373,0.2383,0.2409,0.2479,0.2508,0.2563,0.2627,0.2665,0.2697,0.2754,0.2785,0.2793,0.2803,0.2804,0.2858,0.2997,0.2852,0.2855,0.2953,0.3194,0.3071,0.3083,0.2995,0.2998,0.3001,0.3232,0,0.2364,0.2411,0.2436,0.2501,0.2527,0.2574,0.2625,0.2679,0.2728,0.279,0.2813,0.2872,0.2832,0.2863,0.2912,0.2982,0.3054,0.2939,0.3107,0.3113,0.3003,0.3103,0.2829,0.2998,0.3254,0.3257,0.326,0,0.2389,0.2422,0.2475,0.2536,0.2554,0.26,0.2693,0.2746,0.2833,0.2868,0.2927,0.2958,0.3051,0.3,0.3163,0.3098,0.3155,0.3197,0.3207,0.3079,0.3029,0.2968,0.3029,0.3297,0.3294,0.3291,0.3289,0,0.2379,0.2448,0.2493,0.2517,0.2591,0.2625,0.2681,0.2766,0.2826,0.2935,0.3004,0.309,0.3168,0.3245,0.3318,0.327,0.3498,0.3441,0.339,0.3384,0.3173,0.314,0.3564,0.3563,0.3563,0.3562,0.3561,0,0.2395,0.2424,0.2488,0.2507,0.2568,0.2623,0.2706,0.2764,0.2881,0.296,0.3048,0.3137,0.3236,0.3357,0.3395,0.3471,0.357,0.3429,0.3437,0.3189,0.3156,0.3412,0.3392,0.3571,0.3569,0.3567,0.3566,0,0.2347,0.2399,0.2438,0.2521,0.2552,0.2589,0.2711,0.2765,0.2896,0.3012,0.3062,0.3233,0.338,0.3471,0.3624,0.3577,0.3653,0.3649,0.3356,0.3321,0.3479,0.3459,0.3638,0.3635,0.3633,0.3632,0.363,0,0.2316,0.2335,0.2424,0.2447,0.248,0.2556,0.2604,0.2743,0.2811,0.3052,0.3101,0.3308,0.3385,0.3578,0.3548,0.3611,0.3676,0.3383,0.3206,0.3498,0.3489,0.3472,0.3456,0.2991,0.2984,0.2979,0.2975,0,0.2246,0.2284,0.2314,0.2376,0.2424,0.2492,0.2579,0.2641,0.2808,0.2914,0.3064,0.3164,0.3335,0.3262,0.3341,0.3324,0.3338,0.3272,0.3702,0.2977,0.2896,0.2883,0.2888,0.2927,0.2932,0.2935,0.2938,0.294,0.2176,0.2185,0.2236,0.2287,0.2345,0.2402,0.2419,0.2532,0.2625,0.2738,0.2888,0.2938,0.3005,0.296,0.2916,0.2888,0.3089,0.2956,0.297,0.2991,0.2837,0.2752,0.2732,0.2735,0.2738,0.2741,0.2743,0,0.2082,0.2113,0.2146,0.2193,0.2206,0.2299,0.2374,0.2368,0.242,0.2524,0.2586,0.2391,0.2395,0.2501,0.2376,0.2377,0.233,0.2298,0.2221,0.227,0.2314,0.2122,0.183,0.1827,0.1824,0.1822,0,0,0.2026,0.2022,0.2051,0.2042,0.2085,0.208,0.2104,0.2126,0.2169,0.2106,0.2091,0.2239,0.2391,0.205,0.2029,0.192,0.2069,0.1843,0.2579,0.2535,0.2575,0.2703,0.2465,0,0,0,0,0]},{"header":{"parameterUnit":"m.s-1","parameterCategory":2,"la1":30.2991,"la2":30.254,"lo1":-89.0895,"lo2":-89.0444,"dy":0.0017,"dx":0.0017,"nx":28,"ny":28,"refTime":"2025-09-16T09:00:00:Z","depth":"2","parameterNumber":3,"parameterNumberName":"V-component_of_CURRENTS"},"data":[0,0,0,0,0,0,0,0,0,0,0,0,0,0,0,0,0,0,0,0,0,0,0,0,0,0,0,0,0,0,0,0,0,0,0,0,0,0,0,0,0,0,0,0,0,0,0,0,0,0,0,0,0,0,0,0,0,0,0.0314,0.0313,0,0.0147,0.0144,0.0142,-0.0004,-0.0005,-0.0006,-0.0006,-0.0136,-0.0139,-0.0142,0,0,0,0,0,0,0,0,0,0,0,0,0,0.0331,0.0332,0.0314,0.0313,0.0312,0.0148,0.0144,0.0141,-0.0004,-0.0005,-0.0006,-0.0007,-0.0135,-0.0139,-0.0142,0,0,0,0,0,0,0,0,0,0,0,0,0,0.0251,0.0332,0.0315,0.0227,0.0219,0.0148,0.0144,0.014,-0.0004,-0.0005,-0.0006,-0.0007,-0.0134,-0.0138,-0.0142,-0.0146,0,0,-0.0155,-0.0157,0,0,0,0,0,0,0,0,0.0256,0.0249,0.0241,0.0233,0.0224,0.01,0.0103,0.005,-0.0003,0.007,-0.0006,-0.0008,-0.0046,-0.0058,-0.0102,-0.0152,-0.0158,-0.0155,-0.0158,-0.016,-0.0161,0,0,0,0,0,0,0,0.0262,0.0255,0.0238,0.0241,0.023,0.0137,0.0124,0.009,0.0013,0.0064,0.0055,0.0053,-0.0053,-0.0097,-0.0105,-0.016,-0.0155,-0.0159,-0.0162,-0.0163,-0.029,-0.0291,0,0,0,0,0,0,0.0314,0.0262,0.0243,0.0234,0.0249,0.0139,0.0125,0.0133,0.0012,-0.0005,0.0054,0.0047,-0.009,-0.01,-0.011,-0.0177,-0.016,-0.0164,-0.0166,-0.0289,-0.029,-0.0291,0,0,0,0,0,0,0.0315,0.0314,0.025,0.0251,0.0237,0.0142,0.0151,0.013,0.0066,0.0007,-0.0012,0.0011,-0.0091,-0.0105,-0.0158,-0.018,-0.0166,-0.0169,-0.0288,-0.0289,-0.029,-0.0272,0,0,0,0,0,0,0.0316,0.0316,0.0306,0.0255,0.024,0.0204,0.0152,0.0128,0.0073,0.0061,-0.0036,-0.0049,-0.0093,-0.0152,-0.0162,-0.0186,-0.0173,-0.0287,-0.0288,-0.029,-0.0272,-0.0273,-0.0274,0,0,0,0,0,0.0318,0.0325,0.0307,0.0303,0.0242,0.0205,0.0186,0.0107,0.0072,0.0043,-0.0022,-0.0047,-0.017,-0.0156,-0.0168,-0.0193,-0.0286,-0.0288,-0.029,-0.0271,-0.0273,-0.0274,0,0,0,0,0,0,0.0315,0.0311,0.0289,0.029,0.025,0.0184,0.0148,0.0106,0.0026,0.0008,-0.0054,-0.0071,-0.0129,-0.0158,-0.0141,-0.0234,-0.0233,-0.0238,-0.0215,-0.0217,-0.0217,-0.0192,-0.0176,0,0,0,0,0,0.0321,0.0323,0.03,0.0291,0.0282,0.0212,0.0177,0.0133,0.0076,0.0036,-0.0021,-0.0086,-0.0144,-0.0176,-0.0227,-0.027,-0.0274,-0.0296,-0.0296,-0.0297,-0.0286,-0.0309,-0.0311,-0.0297,-0.0297,-0.0297,0,0,0.0312,0.0312,0.0307,0.029,0.0248,0.0225,0.0184,0.0143,0.0106,0.0041,-0.0033,-0.0087,-0.0155,-0.0216,-0.0244,-0.0245,-0.0303,-0.0299,-0.0299,-0.0288,-0.0311,-0.0313,-0.0313,-0.0299,-0.0298,-0.0298,0,0,0.0314,0.0306,0.031,0.0291,0.0256,0.0217,0.0213,0.0153,0.0104,0.0045,-0.0017,-0.0076,-0.0163,-0.0219,-0.0258,-0.0287,-0.0304,-0.0312,-0.0302,-0.0325,-0.0326,-0.0326,-0.0325,-0.0326,-0.0316,-0.0316,-0.0316,0,0.029,0.0304,0.0297,0.0299,0.0276,0.0223,0.0208,0.0158,0.0081,0.0055,0.0026,-0.0107,-0.0165,-0.0238,-0.0263,-0.0289,-0.0296,-0.0292,-0.0324,-0.0325,-0.0326,-0.0324,-0.0325,-0.0315,-0.0315,-0.0315,-0.0315,0,0.0297,0.03,0.0301,0.0287,0.0266,0.0239,0.0205,0.0167,0.0111,0.0062,-0.0013,-0.0095,-0.0169,-0.0208,-0.0253,-0.0299,-0.0299,-0.0318,-0.0314,-0.0326,-0.0324,-0.0325,-0.0314,-0.0314,-0.0315,-0.0315,0,0,0.0256,0.0294,0.0289,0.0294,0.0255,0.0246,0.0206,0.0156,0.0139,0.0052,0.0022,-0.0103,-0.0138,-0.0183,-0.0244,-0.0278,-0.0301,-0.0304,-0.0305,-0.0289,-0.0335,-0.0361,-0.0365,-0.0328,-0.0329,-0.0329,-0.0327,0,0.0239,0.0266,0.0274,0.0266,0.0273,0.0238,0.0214,0.0171,0.0122,0.0089,0.0001,-0.0055,-0.0132,-0.0164,-0.0214,-0.027,-0.0305,-0.0298,-0.0338,-0.0338,-0.035,-0.0368,-0.0349,-0.0349,-0.0329,-0.0329,-0.0329,0,0.0231,0.0254,0.0264,0.0289,0.0286,0.0268,0.0239,0.0214,0.0166,0.0135,0.007,0.0013,-0.0062,-0.0115,-0.0217,-0.0209,-0.0273,-0.0318,-0.0319,-0.0348,-0.0367,-0.0338,-0.0352,-0.0331,-0.0331,-0.0331,-0.0331,0,0.0224,0.0245,0.0255,0.0256,0.027,0.0263,0.025,0.0219,0.0231,0.0173,0.019,0.0074,0.0051,-0.0056,-0.0164,-0.0191,-0.0248,-0.0292,-0.0375,-0.0376,-0.0368,-0.0369,-0.0362,-0.0362,-0.0362,-0.0362,-0.0362,0,0.0213,0.0224,0.0259,0.0268,0.0287,0.0285,0.0299,0.028,0.0286,0.0335,0.022,0.0251,0.0065,0.0008,-0.0119,-0.0237,-0.0215,-0.0368,-0.0383,-0.0362,-0.0362,-0.0357,-0.0357,-0.0362,-0.0362,-0.0362,-0.0362,0,0.0219,0.0232,0.0265,0.0286,0.0296,0.0313,0.0364,0.0398,0.0386,0.0458,0.0453,0.0393,0.0315,0.0143,-0.0006,-0.0153,-0.0278,-0.0327,-0.0282,-0.0294,-0.04,-0.0399,-0.0425,-0.0427,-0.0427,-0.0428,-0.0429,0,0.0229,0.0247,0.0294,0.0333,0.0343,0.038,0.0426,0.0438,0.0504,0.0572,0.0632,0.0569,0.056,0.0319,0.0036,-0.0197,-0.0234,-0.0345,-0.0417,-0.0398,-0.041,-0.0407,-0.0405,-0.0389,-0.0389,-0.0389,-0.0389,0,0.0258,0.0271,0.0314,0.04,0.0453,0.0529,0.0601,0.0686,0.0743,0.0825,0.095,0.0949,0.0686,0.0436,0.0061,-0.0105,-0.0319,-0.0359,-0.0337,-0.0386,-0.0367,-0.0377,-0.0376,-0.0391,-0.0391,-0.0391,-0.0391,-0.0391,0.029,0.0338,0.0413,0.05,0.0574,0.071,0.0816,0.0926,0.1083,0.1222,0.1181,0.1164,0.0813,0.0332,0.004,-0.03,-0.0311,-0.0441,-0.0439,-0.0437,-0.0444,-0.0428,-0.0463,-0.0463,-0.0463,-0.0464,-0.0464,0,0.037,0.0437,0.052,0.0658,0.079,0.0786,0.097,0.1111,0.1347,0.1361,0.1428,0.1112,0.0794,0.0423,-0.0087,-0.0397,-0.0419,-0.0477,-0.0442,-0.0439,-0.0437,-0.0443,-0.0462,-0.0463,-0.0463,-0.0464,0,0,0.0421,0.0545,0.0607,0.0852,0.0942,0.1139,0.1266,0.1448,0.1517,0.1571,0.1487,0.1317,0.0865,0.0499,0.0087,-0.0178,-0.0233,-0.023,-0.0206,-0.0114,-0.0107,-0.0399,-0.0404,0,0,0,0,0]}],[{"header":{"parameterUnit":"m.s-1","parameterCategory":2,"la1":30.2991,"la2":30.254,"lo1":-89.0895,"lo2":-89.0444,"dy":0.0017,"dx":0.0017,"nx":28,"ny":28,"refTime":"2025-09-16T09:00:00:Z","depth":"4","parameterNumber":2,"parameterNumberName":"U-component_of_CURRENTS"},"data":[0,0,0,0,0,0,0,0,0,0,0,0,0,0,0,0,0,0,0,0,0,0,0,0,0,0,0,0,0,0,0,0,0,0,0,0,0,0,0,0,0,0,0,0,0,0,0,0,0,0,0,0,0,0,0,0,0,0,0.095,0.0951,0,0.0986,0.0986,0.0986,0.1017,0.1017,0.1018,0.1019,0.1109,0.111,0.1112,0,0,0,0,0,0,0,0,0,0,0,0,0,0.0849,0.085,0.095,0.0951,0.0952,0.0986,0.0986,0.0986,0.1016,0.1017,0.1019,0.102,0.1108,0.111,0.1112,0,0,0,0,0,0,0,0,0,0,0,0,0,0.0884,0.0851,0.095,0.0976,0.0979,0.0986,0.0986,0.0986,0.1016,0.1018,0.1019,0.102,0.1108,0.111,0.1112,0.1101,0,0,0.1119,0.1121,0,0,0,0,0,0,0,0,0.0882,0.0887,0.0971,0.0974,0.0977,0.1003,0.0983,0.1029,0.1016,0.0996,0.1019,0.1021,0.1081,0.1086,0.1081,0.1105,0.1109,0.112,0.1121,0.1122,0.1123,0,0,0,0,0,0,0,0.088,0.0885,0.0959,0.0972,0.0976,0.0965,0.0971,0.0991,0.1028,0.0998,0.1002,0.1014,0.1083,0.1078,0.1083,0.111,0.112,0.1122,0.1123,0.1124,0.1235,0.1237,0,0,0,0,0,0,0.0888,0.0884,0.0958,0.096,0.0938,0.0966,0.0973,0.0989,0.1026,0.1034,0.1013,0.1015,0.1074,0.1081,0.1087,0.117,0.1122,0.1124,0.1126,0.1234,0.1236,0.1237,0,0,0,0,0,0,0.0886,0.0895,0.0956,0.0927,0.0935,0.0968,0.0984,0.0989,0.1018,0.1038,0.1046,0.1042,0.1075,0.1084,0.1143,0.117,0.1125,0.1128,0.1232,0.1234,0.1236,0.1277,0,0,0,0,0,0,0.0883,0.0894,0.0914,0.0928,0.0937,0.0981,0.0984,0.0989,0.1024,0.1029,0.1065,0.1073,0.1077,0.114,0.1146,0.1173,0.1129,0.123,0.1233,0.1236,0.1273,0.128,0.1286,0,0,0,0,0,0.0879,0.0899,0.0915,0.0924,0.0962,0.0982,0.0985,0.1008,0.1025,0.1039,0.1077,0.1073,0.1162,0.1143,0.115,0.1178,0.1229,0.1232,0.1235,0.1271,0.1279,0.1285,0,0,0,0,0,0,0.0866,0.0905,0.0922,0.0954,0.0979,0.099,0.1007,0.1025,0.1061,0.1078,0.1095,0.1106,0.1164,0.1169,0.1149,0.1219,0.1194,0.1198,0.1218,0.1226,0.1232,0.1254,0.1131,0,0,0,0,0,0.0873,0.0899,0.0931,0.0958,0.0973,0.0996,0.1011,0.1031,0.1062,0.1079,0.1106,0.1141,0.1175,0.1202,0.1225,0.1267,0.1286,0.129,0.1296,0.1301,0.1324,0.1389,0.1403,0.1249,0.1249,0.1248,0,0,0.0871,0.0901,0.0914,0.0957,0.0975,0.1001,0.1008,0.1041,0.1072,0.1084,0.1139,0.1164,0.1192,0.1239,0.1265,0.1253,0.1349,0.1305,0.1309,0.133,0.1394,0.1409,0.1423,0.1251,0.125,0.125,0,0,0.0879,0.0912,0.0937,0.0958,0.1003,0.102,0.104,0.1072,0.11,0.1153,0.1171,0.1227,0.1268,0.1299,0.1319,0.1377,0.1378,0.1376,0.143,0.1492,0.1505,0.1517,0.1534,0.1547,0.1382,0.1382,0.1382,0,0.0884,0.0918,0.0945,0.0973,0.0997,0.1035,0.1063,0.1092,0.1143,0.1178,0.1183,0.1275,0.13,0.137,0.1395,0.1393,0.1414,0.1396,0.1501,0.1513,0.1525,0.1539,0.1553,0.1384,0.1384,0.1383,0.1383,0,0.0893,0.0936,0.095,0.1002,0.103,0.1059,0.1105,0.1147,0.1191,0.1226,0.1309,0.1346,0.1405,0.1417,0.1432,0.1523,0.1504,0.1497,0.1481,0.1543,0.1553,0.1567,0.1387,0.1386,0.1386,0.1385,0,0,0.0868,0.0945,0.0951,0.0989,0.105,0.1073,0.1134,0.1202,0.1263,0.1313,0.1386,0.1457,0.1487,0.1514,0.153,0.1595,0.1689,0.1593,0.1595,0.1607,0.1804,0.1679,0.1682,0.1705,0.1709,0.1711,0.1767,0,0.0874,0.0924,0.0967,0.1027,0.1058,0.1117,0.1173,0.1242,0.131,0.1387,0.1446,0.153,0.1517,0.1569,0.1623,0.1696,0.1734,0.1674,0.1745,0.1747,0.1627,0.1698,0.1722,0.1778,0.1781,0.1783,0.1785,0,0.0866,0.0906,0.0958,0.1056,0.1077,0.1125,0.1229,0.1295,0.141,0.1463,0.1544,0.1596,0.1708,0.1683,0.1813,0.1778,0.1796,0.183,0.1832,0.1719,0.165,0.171,0.1811,0.1809,0.1807,0.1805,0.1803,0,0.0813,0.0905,0.095,0.0974,0.1082,0.1135,0.1209,0.1324,0.1399,0.1539,0.1613,0.1709,0.1799,0.1851,0.1912,0.1888,0.2033,0.1998,0.1882,0.1871,0.1947,0.1934,0.207,0.207,0.2069,0.2069,0.2069,0,0.079,0.083,0.0938,0.0955,0.1031,0.1128,0.1237,0.1317,0.1456,0.1552,0.1663,0.1736,0.186,0.1941,0.1951,0.1963,0.2058,0.1912,0.1895,0.1956,0.1944,0.1955,0.1941,0.2071,0.2071,0.207,0.207,0,0.0716,0.0787,0.0845,0.0961,0.1008,0.1066,0.1239,0.1313,0.1473,0.1601,0.1661,0.1812,0.1927,0.1995,0.2099,0.2024,0.2044,0.2005,0.206,0.2041,0.1822,0.181,0.1896,0.1892,0.1889,0.1887,0.1885,0,0.0678,0.0703,0.0816,0.0863,0.0923,0.104,0.1113,0.1283,0.137,0.1619,0.1657,0.184,0.1915,0.195,0.2022,0.2029,0.1991,0.1974,0.1907,0.1839,0.1814,0.1806,0.1798,0.188,0.1879,0.1878,0.1877,0,0.0607,0.0654,0.0696,0.078,0.0861,0.0956,0.1088,0.114,0.1352,0.1504,0.1631,0.171,0.182,0.1876,0.1904,0.1892,0.1985,0.1942,0.1947,0.1884,0.182,0.1796,0.1792,0.1867,0.1868,0.1869,0.187,0,0.055,0.0557,0.0627,0.0699,0.0787,0.086,0.0943,0.1067,0.1178,0.1449,0.1474,0.1654,0.1798,0.1804,0.182,0.1822,0.1785,0.1711,0.1727,0.174,0.1664,0.1558,0.1531,0,0,0,0,0,0.0499,0.0512,0.0557,0.0627,0.0703,0.0769,0.0921,0.1015,0.1208,0.1253,0.1374,0.1465,0.1553,0.1626,0.1596,0.1731,0.1774,0.1686,0.1691,0.1809,0.1821,0.1745,0,0,0,0,0,0,0.047,0.0502,0.0522,0.0556,0.0592,0.0676,0.0768,0.0899,0.0946,0.1146,0.1195,0.1351,0.1441,0.1545,0.1556,0.1579,0.1547,0.1788,0.1783,0.1802,0.1813,0.1823,0.1749,0,0,0,0,0]},{"header":{"parameterUnit":"m.s-1","parameterCategory":2,"la1":30.2991,"la2":30.254,"lo1":-89.0895,"lo2":-89.0444,"dy":0.0017,"dx":0.0017,"nx":28,"ny":28,"refTime":"2025-09-16T09:00:00:Z","depth":"4","parameterNumber":3,"parameterNumberName":"V-component_of_CURRENTS"},"data":[0,0,0,0,0,0,0,0,0,0,0,0,0,0,0,0,0,0,0,0,0,0,0,0,0,0,0,0,0,0,0,0,0,0,0,0,0,0,0,0,0,0,0,0,0,0,0,0,0,0,0,0,0,0,0,0,0,0,0.036,0.0359,0,0.0319,0.0319,0.0318,0.0298,0.0298,0.0298,0.0298,0.0246,0.0244,0.0243,0,0,0,0,0,0,0,0,0,0,0,0,0,0.0379,0.0379,0.036,0.0359,0.0359,0.0319,0.0319,0.0318,0.0298,0.0298,0.0298,0.0298,0.0246,0.0244,0.0243,0,0,0,0,0,0,0,0,0,0,0,0,0,0.0359,0.0379,0.036,0.0343,0.0341,0.0319,0.0319,0.0318,0.0298,0.0298,0.0298,0.0298,0.0246,0.0245,0.0243,0.0232,0,0,0.0237,0.0236,0,0,0,0,0,0,0,0,0.036,0.0358,0.0346,0.0344,0.0342,0.0313,0.0307,0.0289,0.0298,0.0315,0.0298,0.0298,0.0267,0.0263,0.0257,0.023,0.0228,0.0236,0.0235,0.0234,0.0234,0,0,0,0,0,0,0,0.0361,0.0359,0.0344,0.0346,0.0343,0.0324,0.0322,0.0303,0.0292,0.0313,0.0312,0.0306,0.0266,0.0259,0.0255,0.0227,0.0236,0.0235,0.0233,0.0233,0.0201,0.0202,0,0,0,0,0,0,0.0368,0.0361,0.0345,0.0343,0.035,0.0324,0.0321,0.0323,0.0292,0.0288,0.0307,0.0306,0.0262,0.0258,0.0253,0.0259,0.0234,0.0232,0.0231,0.0201,0.0201,0.0202,0,0,0,0,0,0,0.0368,0.0367,0.0347,0.035,0.0346,0.0324,0.0326,0.0322,0.0321,0.0287,0.0282,0.031,0.0262,0.0256,0.0242,0.0256,0.0232,0.023,0.02,0.0201,0.0202,0.0256,0,0,0,0,0,0,0.0369,0.0368,0.0377,0.0351,0.0346,0.0343,0.0326,0.0321,0.0318,0.0316,0.0289,0.0283,0.0261,0.0245,0.024,0.0252,0.0228,0.02,0.0201,0.0201,0.0254,0.0259,0.0263,0,0,0,0,0,0.037,0.0383,0.0378,0.0376,0.0359,0.0343,0.034,0.0323,0.0318,0.0322,0.0301,0.0285,0.0246,0.0244,0.0238,0.025,0.02,0.0201,0.0201,0.0252,0.0258,0.0263,0,0,0,0,0,0,0.0395,0.0381,0.0376,0.0384,0.0368,0.034,0.0343,0.033,0.0317,0.0319,0.0286,0.028,0.0274,0.0253,0.0251,0.0242,0.0221,0.0221,0.0262,0.0267,0.0271,0.0278,0.0227,0,0,0,0,0,0.0405,0.0414,0.0392,0.0399,0.0395,0.0372,0.0366,0.0355,0.0336,0.033,0.031,0.0289,0.0271,0.0262,0.0244,0.0238,0.0188,0.0242,0.0246,0.025,0.0251,0.0181,0.0178,0.0204,0.0204,0.0204,0,0,0.0416,0.041,0.0415,0.0405,0.0394,0.0398,0.0369,0.0366,0.0372,0.0326,0.0332,0.0304,0.0273,0.0267,0.0263,0.0252,0.0215,0.0251,0.0255,0.0253,0.0181,0.0178,0.0176,0.0205,0.0205,0.0205,0,0,0.0441,0.0438,0.0455,0.0448,0.0437,0.0424,0.0426,0.0405,0.0401,0.0395,0.0366,0.0342,0.0321,0.0296,0.0282,0.0297,0.0241,0.0298,0.0323,0.0256,0.0253,0.0249,0.0178,0.0168,0.0299,0.0299,0.0299,0,0.0456,0.0472,0.0455,0.0468,0.0469,0.044,0.0455,0.0447,0.0425,0.0417,0.0407,0.0356,0.0334,0.0311,0.0321,0.0307,0.0256,0.0308,0.026,0.0256,0.0252,0.0179,0.0167,0.0302,0.0301,0.0301,0.0301,0,0.0489,0.0505,0.0513,0.0524,0.0523,0.0529,0.0516,0.0513,0.0501,0.0483,0.0458,0.0414,0.0378,0.0373,0.0355,0.032,0.0289,0.0274,0.0247,0.0252,0.0175,0.0162,0.0306,0.0305,0.0304,0.0303,0,0,0.0505,0.0534,0.0536,0.0549,0.0553,0.055,0.0567,0.0559,0.0555,0.0531,0.0508,0.0482,0.0443,0.0423,0.0387,0.0335,0.0265,0.03,0.0295,0.0228,0.0104,0.0103,0.0087,0.0238,0.0236,0.0234,0.0061,0,0.0533,0.0575,0.0581,0.0612,0.0627,0.0613,0.0626,0.0616,0.0595,0.0565,0.0513,0.0484,0.0467,0.0442,0.0389,0.0295,0.0233,0.0312,0.0109,0.0103,0.0101,0.0073,0.0229,0.005,0.0047,0.0045,0.0043,0,0.0557,0.0581,0.0629,0.0649,0.0654,0.0671,0.0667,0.0676,0.0636,0.0613,0.0569,0.0519,0.0451,0.0427,0.0268,0.0318,0.0219,0.0143,0.0134,0.0105,0.0077,0.0044,0.0018,0.002,0.0022,0.0024,0.0025,0,0.0563,0.0606,0.0648,0.0657,0.0682,0.0696,0.0706,0.0691,0.0692,0.064,0.0616,0.0526,0.0466,0.0345,0.0206,0.0227,0.0008,0.0011,-0.0089,-0.0091,-0.0062,-0.0057,-0.0117,-0.0117,-0.0117,-0.0116,-0.0116,0,0.0576,0.0603,0.0656,0.0672,0.0708,0.0719,0.0744,0.0732,0.0713,0.0704,0.0643,0.0591,0.0442,0.0308,0.0186,0.0005,-0.0014,-0.0096,-0.0138,-0.0035,-0.0024,-0.0073,-0.0065,-0.0123,-0.0121,-0.012,-0.0119,0,0.0567,0.0608,0.0651,0.0696,0.0714,0.0739,0.078,0.0784,0.0772,0.0749,0.0734,0.0618,0.0448,0.0285,0.006,-0.0022,-0.0193,-0.0257,-0.0149,-0.018,-0.0244,-0.0232,-0.0384,-0.0386,-0.0387,-0.0388,-0.0389,0,0.0564,0.0592,0.0666,0.0697,0.0722,0.0769,0.0794,0.0808,0.0811,0.0763,0.0734,0.0583,0.0488,0.0163,0.0001,-0.0253,-0.0274,-0.036,-0.0281,-0.0248,-0.0273,-0.0259,-0.0245,-0.0391,-0.0392,-0.0392,-0.0392,0,0.0548,0.0588,0.062,0.0691,0.0735,0.0787,0.0823,0.0827,0.0832,0.0825,0.0719,0.0572,0.0367,0.0148,-0.0058,-0.0229,-0.0296,-0.0374,-0.0372,-0.0298,-0.0258,-0.0279,-0.0264,-0.0397,-0.0396,-0.0396,-0.0395,0,0.0533,0.0554,0.0612,0.0668,0.073,0.0776,0.0806,0.0802,0.0807,0.0762,0.0718,0.053,0.042,0.0155,-0.0031,-0.0201,-0.0225,-0.0249,-0.0253,-0.025,-0.0141,-0.0067,-0.0195,0,0,0,0,0,0.0511,0.0534,0.0583,0.0639,0.0701,0.0746,0.0805,0.083,0.0838,0.0766,0.0749,0.0568,0.0299,0.0173,-0.0001,-0.0056,-0.0258,-0.0262,-0.0289,-0.0422,-0.0417,-0.0309,0,0,0,0,0,0,0.0494,0.0536,0.0565,0.0608,0.0644,0.0708,0.0756,0.0768,0.0732,0.0722,0.057,0.053,0.0252,0.0382,-0.001,-0.006,-0.0095,-0.0383,-0.0386,-0.0425,-0.042,-0.0416,-0.0303,0,0,0,0,0]}]]